Regional Weather Roundup
Issued by NWS Mt. Holly, NJ

Home | Current Version | Previous Version | Text Only | Print | Product List | Glossary On
Versions: 1 2 3 4 5 6 7 8 9 10 11 12 13 14 15 16 17 18 19 20 21 22 23 24 25 26 27 28
000
ASUS41 KPHI 161612
RWRPHI

REGIONAL WEATHER ROUNDUP
NATIONAL WEATHER SERVICE MOUNT HOLLY NJ
1200 PM EDT WED AUG 16 2017

NOTE:  "FAIR" INDICATES FEW OR NO CLOUDS BELOW 12,000 FEET WITH NO
SIGNIFICANT WEATHER AND/OR OBSTRUCTIONS TO VISIBILITY.

 * = STATION DOES NOT REPORT PRECIPITATION (E.G. RAIN, SNOW, ETC.)
        OR FOG.

NJZ015>026-161700-
SOUTHERN NEW JERSEY

CITY           SKY/WX    TMP DP  RH WIND       PRES   REMARKS
POMONA         MOSUNNY   84  72  67 VRB7      29.98S
WILDWOOD*      PTSUNNY   79  73  82 NW8       30.00S
MILLVILLE      MOSUNNY   85  73  67 N8        29.98F HX  91
WRIGHTSTOWN    CLOUDY    81  70  68 N6        29.95F
MOUNT HOLLY    CLOUDY    81  71  71 VRB5      29.98F
TRENTON        CLOUDY    82  68  62 NE7       29.97F

$$
NJZ001>014-161700-
NORTHERN NEW JERSEY

CITY           SKY/WX    TMP DP  RH WIND       PRES   REMARKS
SUSSEX         SUNNY     79  65  62 W9        30.00S
ANDOVER*         N/A     79  64  60 CALM      30.01S
MORRISTOWN     MOSUNNY   82  64  54 N10       29.99R
NEWARK         PTSUNNY   85  62  46 NW13G20   29.96F
TETERBORO      SUNNY     84  62  47 NW12      29.95F
CALDWELL       SUNNY     82  63  52 NW9       29.98S
SOMERVILLE     SUNNY     83  64  52 N10       29.96F
ALLAIRE*       CLOUDY    82  67  60 NW9       29.99S
TOMS RIVER*    PTSUNNY   83  70  64 W10       29.99S

$$
PAZ043-044-047-054-055-060>062-066>071-161700-
EASTERN PENNSYLVANIA

CITY           SKY/WX    TMP DP  RH WIND       PRES   REMARKS
PHILADELPHIA   CLOUDY    83  67  58 W3        29.99F
NORTH PHILA    CLOUDY    85  68  56 N6        29.99F
BLUE BELL*     CLOUDY    79  70  73 CALM      30.00F
DOYLESTOWN     SUNNY     81  68  64 VRB5      29.99F
QUAKERTOWN*    MOSUNNY   81  68  65 NE6       30.00F
PERKASIE*      FAIR      81  68  65 NW3       30.01F
POTTSTOWN      CLOUDY    79  67  66 VRB6      30.01F
LANCASTER      CLOUDY    77  70  78 NW5       30.02S
COATESVILLE    CLOUDY    79  73  83 W7        30.03S HAZE
READING        CLOUDY    79  70  74 NW5       30.00S
ALLENTOWN      MOSUNNY   83  66  56 CALM      29.98F
MOUNT POCONO   SUNNY     74  59  59 N8G17     30.05F
HAZLETON         N/A     79  64  61 N3        30.08R
LEHIGHTON      FAIR      81  63  54 CALM      30.00S
WILKES BARRE   SUNNY     76  65  68 NE8       30.03F

$$
DEZALL-MDZ008-012-015-019-020-161700-
DELAWARE AND EASTERN MARYLAND

CITY           SKY/WX    TMP DP  RH WIND       PRES   REMARKS
WILMINGTON     CLOUDY    83  74  74 VRB3      29.99F
DOVER          PTSUNNY   82  82 100 NW5       29.98S HX  96
GEORGETOWN     CLOUDY    83  69  62 CALM      30.00F
ABERDEEN       PTSUNNY   83  74  74 CALM      30.00S
PATUXENT       MOSUNNY   83  74  74 VRB6      30.01S
OCEAN CITY     SUNNY     82  73  74 N5        30.00S
WALLOPS ISLAND PTSUNNY   81  74  79 VRB3      30.01S
CAMBRIDGE      SUNNY     82  73  74 VRB3      30.01S
SALISBURY      SUNNY     83  71  67 NW6       30.00S

$$
PAZ001-021-NYZ056-072-MDZ011-DCZ001-161700-
OTHER NEARBY LOCATIONS

CITY           SKY/WX    TMP DP  RH WIND       PRES   REMARKS
HARRISBURG     MOSUNNY   80  70  71 NW9       30.00F
STATE COLLEGE  MOSUNNY   79  66  65 CALM      30.06F
WILLIAMSPORT   MOSUNNY   82  67  60 W9        30.01F
BINGHAMTON     PTSUNNY   69  61  75 N10       30.07S
NEW YORK CITY  SUNNY     82  60  47 N7        29.99S
BALTIMORE      PTSUNNY   84  73  69 W5        30.00S HX  90
WASHINGTON DC  CLOUDY    85  73  67 E3        30.01F HX  91

$$




USA.gov is the U.S. government's official web portal to all federal, state and local government web resources and services.